START_TIME,STEP,MOV.,M6,t_acc.,M7,t_acc.,M19,t_acc.,H36,t_acc.
1979-07-19 00:00:50.990 ,0,0,0.,12.0,0.,12.0,0.,12.0,0.,12.0
1979-07-19 00:01:02.990 ,0,0,0.,12.0,0.,12.0,0.,12.0,0.,12.0
1979-07-19 00:01:14.990 ,0,0,0.,12.0,0.,12.0,0.,12.0,0.,12.0
1979-07-19 00:01:26.990 ,0,0,0.,12.0,0.,12.0,0.,12.0,0.,12.0
1979-07-19 00:01:38.990 ,2,1,0.,12.0,0.,12.0,0.,12.0,0.,12.0
1979-07-19 00:01:50.990 ,2,1,0.,12.0,0.,12.0,0.,12.0,0.,12.0
1979-07-19 00:02:02.990 ,2,0,0.,12.0,0.,12.0,0.,12.0,0.,12.0
1979-07-19 00:02:14.990 ,2,0,0.,12.0,0.,12.0,0.,12.0,0.,12.0
1979-07-19 00:02:26.990 ,3,1,0.,12.0,0.,12.0,0.,12.0,0.,12.0
1979-07-19 00:02:38.990 ,3,1,0.,12.0,0.,12.0,0.,12.0,0.,12.0
1979-07-19 00:02:50.990 ,3,0,0.,12.0,0.,12.0,0.,12.0,0.,12.0
1979-07-19 00:03:02.990 ,3,0,1.,12.0,0.,12.0,0.,12.0,0.,12.0
1979-07-19 00:03:14.990 ,4,1,0.,12.0,0.,12.0,0.,12.0,0.,12.0
1979-07-19 00:03:26.990 ,4,1,0.,12.0,0.,12.0,0.,12.0,0.,12.0
1979-07-19 00:03:38.990 ,4,0,0.,12.0,0.,12.0,0.,12.0,0.,12.0
1979-07-19 00:03:50.990 ,4,0,0.,12.0,0.,12.0,0.,12.0,0.,12.0
1979-07-19 00:04:02.990 ,5,1,0.,12.0,0.,12.0,0.,12.0,0.,12.0
1979-07-19 00:04:14.990 ,5,1,0.,12.0,0.,12.0,0.,12.0,0.,12.0
1979-07-19 00:04:26.990 ,5,0,0.,12.0,0.,12.0,0.,12.0,0.,12.0
1979-07-19 00:04:38.990 ,5,0,0.,12.0,0.,12.0,0.,12.0,0.,12.0
1979-07-19 00:04:50.990 ,6,1,0.,12.0,0.,12.0,0.,12.0,0.,12.0
1979-07-19 00:05:02.990 ,6,1,0.,12.0,0.,12.0,0.,12.0,0.,12.0
1979-07-19 00:05:14.990 ,6,0,0.,12.0,0.,12.0,0.,12.0,0.,12.0
1979-07-19 00:05:26.990 ,6,0,0.,12.0,0.,12.0,0.,12.0,0.,12.0
1979-07-19 00:05:38.990 ,7,1,0.,12.0,0.,12.0,0.,12.0,0.,12.0
1979-07-19 00:05:50.990 ,7,1,0.,12.0,0.,12.0,0.,12.0,0.,12.0
1979-07-19 00:06:02.990 ,7,0,0.,12.0,0.,12.0,0.,12.0,0.,12.0
1979-07-19 00:06:14.990 ,7,0,0.,12.0,0.,12.0,0.,12.0,0.,12.0
1979-07-19 00:06:26.990 ,7,1,0.,12.0,0.,12.0,0.,12.0,0.,12.0
1979-07-19 00:06:38.990 ,7,1,0.,12.0,0.,12.0,0.,12.0,0.,12.0
1979-07-19 00:06:50.990 ,7,0,0.,12.0,0.,12.0,0.,12.0,0.,12.0
1979-07-19 00:07:02.990 ,7,0,0.,12.0,0.,12.0,0.,12.0,0.,12.0
1979-07-19 00:07:14.990 ,6,1,0.,12.0,0.,12.0,0.,12.0,0.,12.0
1979-07-19 00:07:26.990 ,6,1,0.,12.0,0.,12.0,0.,12.0,0.,12.0
1979-07-19 00:07:38.990 ,6,0,1.,12.0,0.,12.0,0.,12.0,0.,12.0
1979-07-19 00:07:50.990 ,6,0,0.,12.0,0.,12.0,0.,12.0,0.,12.0
1979-07-19 00:08:02.990 ,5,1,0.,12.0,0.,12.0,0.,12.0,0.,12.0
1979-07-19 00:08:14.990 ,5,1,0.,12.0,0.,12.0,0.,12.0,0.,12.0
1979-07-19 00:08:26.990 ,5,0,0.,12.0,0.,12.0,0.,12.0,0.,12.0
1979-07-19 00:08:38.990 ,5,0,0.,12.0,0.,12.0,0.,12.0,0.,12.0
1979-07-19 00:08:50.990 ,4,1,0.,12.0,0.,12.0,0.,12.0,0.,12.0
1979-07-19 00:09:02.990 ,4,1,0.,12.0,0.,12.0,0.,12.0,0.,12.0
1979-07-19 00:09:14.990 ,4,0,0.,12.0,0.,12.0,0.,12.0,0.,12.0
1979-07-19 00:09:26.990 ,4,0,0.,12.0,0.,12.0,0.,12.0,0.,12.0
1979-07-19 00:09:38.990 ,3,1,0.,12.0,0.,12.0,0.,12.0,0.,12.0
1979-07-19 00:09:50.990 ,3,1,0.,12.0,0.,12.0,0.,12.0,0.,12.0
1979-07-19 00:10:02.990 ,3,0,0.,12.0,0.,12.0,0.,12.0,0.,12.0
1979-07-19 00:10:14.990 ,3,0,0.,12.0,0.,12.0,0.,12.0,0.,12.0
1979-07-19 00:10:26.990 ,2,1,0.,12.0,0.,12.0,0.,12.0,0.,12.0
1979-07-19 00:10:38.990 ,2,1,0.,12.0,0.,12.0,0.,12.0,0.,12.0
1979-07-19 00:10:50.990 ,2,0,0.,12.0,0.,12.0,0.,12.0,0.,12.0
1979-07-19 00:11:02.990 ,2,0,0.,12.0,0.,12.0,0.,12.0,0.,12.0
1979-07-19 00:11:14.990 ,1,1,0.,12.0,0.,12.0,0.,12.0,0.,12.0
1979-07-19 00:11:26.990 ,1,1,0.,12.0,0.,12.0,0.,12.0,0.,12.0
1979-07-19 00:11:38.990 ,1,0,0.,12.0,0.,12.0,0.,12.0,0.,12.0
1979-07-19 00:11:50.990 ,1,0,0.,12.0,0.,12.0,0.,12.0,0.,12.0
1979-07-19 00:12:02.990 ,0,1,0.,12.0,0.,12.0,0.,12.0,0.,12.0
1979-07-19 00:12:14.990 ,0,1,0.,12.0,0.,12.0,0.,12.0,0.,12.0
1979-07-19 00:12:26.990 ,0,0,0.,12.0,0.,12.0,0.,12.0,0.,12.0
1979-07-19 00:12:38.990 ,0,0,0.,12.0,0.,12.0,0.,12.0,0.,12.0
1979-07-19 00:12:50.990 ,0,1,0.,12.0,0.,12.0,0.,12.0,0.,12.0
1979-07-19 00:13:02.990 ,0,1,0.,12.0,0.,12.0,0.,12.0,0.,12.0
1979-07-19 00:13:14.990 ,0,0,0.,12.0,0.,12.0,0.,12.0,0.,12.0
1979-07-19 00:13:26.990 ,0,0,0.,12.0,0.,12.0,0.,12.0,0.,12.0
1979-07-19 00:13:38.990 ,1,1,0.,12.0,0.,12.0,0.,12.0,0.,12.0
1979-07-19 00:13:50.990 ,1,1,0.,12.0,0.,12.0,0.,12.0,0.,12.0
1979-07-19 00:14:02.990 ,1,0,0.,12.0,0.,12.0,0.,12.0,0.,12.0
1979-07-19 00:14:14.990 ,1,0,0.,12.0,0.,12.0,0.,12.0,0.,12.0
1979-07-19 00:14:26.990 ,2,1,0.,12.0,0.,12.0,0.,12.0,0.,12.0
1979-07-19 00:14:38.990 ,2,1,0.,12.0,0.,12.0,0.,12.0,0.,12.0
1979-07-19 00:14:50.990 ,2,0,0.,12.0,0.,12.0,0.,12.0,0.,12.0
1979-07-19 00:15:02.990 ,2,0,0.,12.0,0.,12.0,0.,12.0,0.,12.0
1979-07-19 00:15:14.980 ,3,1,0.,12.0,0.,12.0,0.,12.0,0.,12.0
1979-07-19 00:15:26.990 ,3,1,0.,12.0,0.,12.0,0.,12.0,0.,12.0
1979-07-19 00:15:38.980 ,3,0,0.,12.0,0.,12.0,0.,12.0,0.,12.0
1979-07-19 00:15:50.990 ,3,0,0.,12.0,0.,12.0,0.,12.0,0.,12.0
1979-07-19 00:16:02.980 ,4,1,0.,12.0,0.,12.0,0.,12.0,0.,12.0
1979-07-19 00:16:14.980 ,4,1,0.,12.0,0.,12.0,0.,12.0,0.,12.0
1979-07-19 00:16:26.980 ,4,0,1.,12.0,0.,12.0,0.,12.0,0.,12.0
1979-07-19 00:16:38.990 ,4,0,0.,12.0,0.,12.0,0.,12.0,0.,12.0
1979-07-19 00:16:50.980 ,5,1,0.,12.0,0.,12.0,0.,12.0,0.,12.0
1979-07-19 00:17:02.990 ,5,1,0.,12.0,0.,12.0,0.,12.0,0.,12.0
1979-07-19 00:17:14.980 ,5,0,0.,12.0,0.,12.0,0.,12.0,0.,12.0
1979-07-19 00:17:26.980 ,5,0,0.,12.0,0.,12.0,0.,12.0,0.,12.0
1979-07-19 00:17:38.980 ,6,1,0.,12.0,0.,12.0,0.,12.0,0.,12.0
1979-07-19 00:17:50.980 ,6,1,0.,12.0,0.,12.0,0.,12.0,0.,12.0
1979-07-19 00:18:02.980 ,6,0,0.,12.0,0.,12.0,0.,12.0,0.,12.0
1979-07-19 00:18:14.980 ,6,0,0.,12.0,0.,12.0,0.,12.0,0.,12.0
1979-07-19 00:18:26.980 ,7,0,0.,12.0,0.,12.0,0.,12.0,0.,12.0
1979-07-19 00:18:38.980 ,7,0,0.,12.0,0.,12.0,0.,12.0,0.,12.0
1979-07-19 00:18:50.980 ,7,0,0.,12.0,0.,12.0,0.,12.0,0.,12.0
1979-07-19 00:19:02.980 ,7,0,0.,12.0,0.,12.0,0.,12.0,0.,12.0
1979-07-19 00:19:14.980 ,4,1,0.,12.0,0.,12.0,0.,12.0,0.,12.0
1979-07-19 00:19:26.980 ,4,1,0.,12.0,0.,12.0,0.,12.0,0.,12.0
1979-07-19 00:19:38.980 ,0,1,0.,12.0,0.,12.0,0.,12.0,0.,12.0
1979-07-19 00:19:50.980 ,0,1,0.,12.0,0.,12.0,0.,12.0,0.,12.0
1979-07-19 00:20:02.980 ,3,1,0.,12.0,0.,12.0,0.,12.0,0.,12.0
1979-07-19 00:20:14.980 ,3,1,0.,12.0,0.,12.0,0.,12.0,0.,12.0
1979-07-19 00:20:26.980 ,7,1,0.,12.0,0.,12.0,0.,12.0,0.,12.0
1979-07-19 00:20:38.980 ,7,1,0.,12.0,0.,12.0,0.,12.0,0.,12.0
1979-07-19 00:20:50.980 ,4,1,0.,12.0,0.,12.0,0.,12.0,0.,12.0
1979-07-19 00:21:02.980 ,4,1,0.,12.0,0.,12.0,0.,12.0,0.,12.0
1979-07-19 00:21:14.980 ,0,1,0.,12.0,0.,12.0,0.,12.0,0.,12.0
1979-07-19 00:21:26.980 ,0,1,0.,12.0,0.,12.0,0.,12.0,0.,12.0
1979-07-19 00:21:38.980 ,3,1,0.,12.0,0.,12.0,0.,12.0,0.,12.0
1979-07-19 00:21:50.980 ,3,1,0.,12.0,0.,12.0,0.,12.0,0.,12.0
1979-07-19 00:22:02.980 ,7,1,0.,12.0,0.,12.0,0.,12.0,0.,12.0
1979-07-19 00:22:14.980 ,7,1,0.,12.0,0.,12.0,0.,12.0,0.,12.0
1979-07-19 00:22:26.980 ,4,1,0.,12.0,0.,12.0,0.,12.0,0.,12.0
1979-07-19 00:22:38.980 ,4,1,0.,12.0,0.,12.0,0.,12.0,0.,12.0
1979-07-19 00:22:50.980 ,0,1,1.,12.0,0.,12.0,0.,12.0,0.,12.0
1979-07-19 00:23:02.980 ,0,1,0.,12.0,0.,12.0,0.,12.0,0.,12.0
1979-07-19 00:23:14.980 ,3,1,0.,12.0,0.,12.0,0.,12.0,0.,12.0
1979-07-19 00:23:26.980 ,3,1,1.,12.0,0.,12.0,0.,12.0,0.,12.0
1979-07-19 00:23:38.980 ,7,1,0.,12.0,0.,12.0,0.,12.0,0.,12.0
1979-07-19 00:23:50.980 ,7,1,0.,12.0,0.,12.0,0.,12.0,0.,12.0
1979-07-19 00:24:02.980 ,4,1,0.,12.0,0.,12.0,0.,12.0,0.,12.0
1979-07-19 00:24:14.980 ,4,1,0.,12.0,0.,12.0,0.,12.0,0.,12.0
1979-07-19 00:24:26.980 ,0,1,0.,12.0,0.,12.0,0.,12.0,0.,12.0
1979-07-19 00:24:38.980 ,0,1,0.,12.0,0.,12.0,0.,12.0,0.,12.0
1979-07-19 00:24:50.980 ,3,1,0.,12.0,0.,12.0,0.,12.0,0.,12.0
1979-07-19 00:25:02.980 ,3,1,0.,12.0,0.,12.0,0.,12.0,0.,12.0
1979-07-19 00:25:14.980 ,7,1,0.,12.0,0.,12.0,0.,12.0,0.,12.0
1979-07-19 00:25:26.980 ,7,1,0.,12.0,0.,12.0,0.,12.0,0.,12.0
1979-07-19 00:25:38.980 ,4,1,0.,12.0,0.,12.0,0.,12.0,0.,12.0
1979-07-19 00:25:50.980 ,4,1,0.,12.0,0.,12.0,0.,12.0,0.,12.0
1979-07-19 00:26:02.980 ,0,1,0.,12.0,0.,12.0,0.,12.0,0.,12.0
1979-07-19 00:26:14.980 ,0,1,0.,12.0,0.,12.0,0.,12.0,0.,12.0
1979-07-19 00:26:26.980 ,3,1,0.,12.0,0.,12.0,0.,12.0,0.,12.0
1979-07-19 00:26:38.980 ,3,1,0.,12.0,0.,12.0,0.,12.0,0.,12.0
1979-07-19 00:26:50.980 ,7,1,0.,12.0,0.,12.0,0.,12.0,0.,12.0
1979-07-19 00:27:02.980 ,7,1,0.,12.0,0.,12.0,0.,12.0,0.,12.0
1979-07-19 00:27:14.980 ,4,1,0.,12.0,0.,12.0,0.,12.0,0.,12.0
1979-07-19 00:27:26.980 ,4,1,0.,12.0,0.,12.0,0.,12.0,1.,12.0
1979-07-19 00:27:38.980 ,0,1,0.,12.0,0.,12.0,0.,12.0,0.,12.0
1979-07-19 00:27:50.980 ,0,1,0.,12.0,0.,12.0,0.,12.0,0.,12.0
1979-07-19 00:28:02.980 ,3,1,0.,12.0,0.,12.0,0.,12.0,0.,12.0
1979-07-19 00:28:14.980 ,3,1,0.,12.0,0.,12.0,0.,12.0,0.,12.0
1979-07-19 00:28:26.980 ,7,1,0.,12.0,0.,12.0,0.,12.0,0.,12.0
1979-07-19 00:28:38.980 ,7,1,0.,12.0,0.,12.0,0.,12.0,0.,12.0
1979-07-19 00:28:50.980 ,4,1,0.,12.0,0.,12.0,0.,12.0,0.,12.0
1979-07-19 00:29:02.980 ,4,1,1.,12.0,0.,12.0,0.,12.0,0.,12.0
1979-07-19 00:29:14.980 ,0,1,0.,12.0,0.,12.0,0.,12.0,0.,12.0
1979-07-19 00:29:26.980 ,0,1,0.,12.0,0.,12.0,0.,12.0,0.,12.0
1979-07-19 00:29:38.980 ,0,0,0.,12.0,0.,12.0,0.,12.0,0.,12.0
1979-07-19 00:29:50.980 ,0,0,0.,12.0,0.,12.0,0.,12.0,0.,12.0
1979-07-19 00:30:02.980 ,0,0,0.,12.0,0.,12.0,0.,12.0,0.,12.0
1979-07-19 00:30:14.980 ,0,0,0.,12.0,0.,12.0,0.,12.0,0.,12.0
1979-07-19 00:30:26.980 ,5,1,0.,12.0,0.,12.0,0.,12.0,0.,12.0
1979-07-19 00:30:38.980 ,5,1,0.,12.0,0.,12.0,0.,12.0,0.,12.0
1979-07-19 00:30:50.980 ,5,0,0.,12.0,0.,12.0,0.,12.0,0.,12.0
1979-07-19 00:31:02.980 ,5,0,0.,12.0,0.,12.0,0.,12.0,0.,12.0
1979-07-19 00:31:14.980 ,4,1,0.,12.0,0.,12.0,0.,12.0,0.,12.0
1979-07-19 00:31:26.980 ,4,1,0.,12.0,0.,12.0,0.,12.0,0.,12.0
1979-07-19 00:31:38.980 ,4,0,0.,12.0,0.,12.0,0.,12.0,0.,12.0
1979-07-19 00:31:50.980 ,4,0,0.,12.0,0.,12.0,0.,12.0,0.,12.0
1979-07-19 00:32:02.980 ,3,1,0.,12.0,0.,12.0,0.,12.0,0.,12.0
1979-07-19 00:32:14.980 ,3,1,0.,12.0,0.,12.0,0.,12.0,0.,12.0
1979-07-19 00:32:26.980 ,3,0,0.,12.0,0.,12.0,0.,12.0,0.,12.0
1979-07-19 00:32:38.980 ,3,0,0.,12.0,0.,12.0,0.,12.0,0.,12.0
1979-07-19 00:32:50.980 ,2,1,0.,12.0,0.,12.0,0.,12.0,0.,12.0
1979-07-19 00:33:02.980 ,2,1,0.,12.0,0.,12.0,0.,12.0,0.,12.0
1979-07-19 00:33:14.980 ,2,0,0.,12.0,0.,12.0,0.,12.0,0.,12.0
1979-07-19 00:33:26.980 ,2,0,0.,12.0,0.,12.0,0.,12.0,0.,12.0
1979-07-19 00:33:38.980 ,1,1,0.,12.0,0.,12.0,0.,12.0,0.,12.0
1979-07-19 00:33:50.980 ,1,1,0.,12.0,0.,12.0,0.,12.0,0.,12.0
1979-07-19 00:34:02.980 ,1,0,1.,12.0,0.,12.0,0.,12.0,0.,12.0
1979-07-19 00:34:14.990 ,1,0,0.,12.0,0.,12.0,0.,12.0,0.,12.0
1979-07-19 00:34:26.980 ,0,1,0.,12.0,0.,12.0,0.,12.0,0.,12.0
1979-07-19 00:34:38.980 ,0,1,0.,12.0,0.,12.0,0.,12.0,0.,12.0
1979-07-19 00:34:50.980 ,0,0,0.,12.0,0.,12.0,0.,12.0,0.,12.0
1979-07-19 00:35:02.980 ,0,0,0.,12.0,0.,12.0,0.,12.0,0.,12.0
1979-07-19 00:35:14.980 ,0,1,0.,12.0,0.,12.0,0.,12.0,0.,12.0
1979-07-19 00:35:26.980 ,0,1,1.,12.0,0.,12.0,0.,12.0,0.,12.0
1979-07-19 00:35:38.980 ,0,0,0.,12.0,0.,12.0,0.,12.0,0.,12.0
1979-07-19 00:35:50.980 ,0,0,0.,12.0,0.,12.0,0.,12.0,0.,12.0
1979-07-19 00:36:02.980 ,1,1,0.,12.0,0.,12.0,0.,12.0,0.,12.0
1979-07-19 00:36:14.980 ,1,1,0.,12.0,0.,12.0,0.,12.0,0.,12.0
1979-07-19 00:36:26.980 ,1,0,0.,12.0,0.,12.0,0.,12.0,0.,12.0
1979-07-19 00:36:38.980 ,1,0,0.,12.0,0.,12.0,0.,12.0,1.,12.0
1979-07-19 00:36:50.980 ,2,1,0.,12.0,0.,12.0,0.,12.0,0.,12.0
1979-07-19 00:37:02.980 ,2,1,0.,12.0,0.,12.0,0.,12.0,0.,12.0
1979-07-19 00:37:14.980 ,2,0,0.,12.0,0.,12.0,0.,12.0,0.,12.0
1979-07-19 00:37:26.980 ,2,0,0.,12.0,0.,12.0,0.,12.0,0.,12.0
1979-07-19 00:37:38.980 ,3,1,0.,12.0,0.,12.0,0.,12.0,0.,12.0
1979-07-19 00:37:50.980 ,3,1,0.,12.0,0.,12.0,0.,12.0,0.,12.0
1979-07-19 00:38:02.980 ,3,0,0.,12.0,0.,12.0,0.,12.0,0.,12.0
1979-07-19 00:38:14.980 ,3,0,0.,12.0,0.,12.0,0.,12.0,1.,12.0
1979-07-19 00:38:26.980 ,4,1,0.,12.0,0.,12.0,0.,12.0,0.,12.0
1979-07-19 00:38:38.980 ,4,1,0.,12.0,0.,12.0,0.,12.0,0.,12.0
1979-07-19 00:38:50.980 ,4,0,0.,12.0,0.,12.0,0.,12.0,0.,12.0
1979-07-19 00:39:02.980 ,4,0,0.,12.0,0.,12.0,0.,12.0,0.,12.0
1979-07-19 00:39:14.980 ,5,1,0.,12.0,0.,12.0,0.,12.0,0.,12.0
1979-07-19 00:39:26.980 ,5,1,0.,12.0,0.,12.0,0.,12.0,0.,12.0
1979-07-19 00:39:38.980 ,5,0,0.,12.0,0.,12.0,0.,12.0,0.,12.0
1979-07-19 00:39:50.980 ,5,0,0.,12.0,0.,12.0,0.,12.0,0.,12.0
1979-07-19 00:40:02.980 ,6,1,0.,12.0,0.,12.0,0.,12.0,0.,12.0
1979-07-19 00:40:14.980 ,6,1,0.,12.0,0.,12.0,0.,12.0,0.,12.0
1979-07-19 00:40:26.980 ,6,0,0.,12.0,0.,12.0,0.,12.0,0.,12.0
1979-07-19 00:40:38.980 ,6,0,0.,12.0,0.,12.0,0.,12.0,0.,12.0
1979-07-19 00:40:50.980 ,7,1,0.,12.0,0.,12.0,0.,12.0,0.,12.0
1979-07-19 00:41:02.980 ,7,1,0.,12.0,0.,12.0,0.,12.0,0.,12.0
1979-07-19 00:41:14.980 ,7,0,0.,12.0,0.,12.0,0.,12.0,0.,12.0
1979-07-19 00:41:26.980 ,7,0,0.,12.0,0.,12.0,0.,12.0,0.,12.0
1979-07-19 00:41:38.980 ,7,1,0.,12.0,0.,12.0,0.,12.0,0.,12.0
1979-07-19 00:41:50.980 ,7,1,0.,12.0,0.,12.0,0.,12.0,0.,12.0
1979-07-19 00:42:02.980 ,7,0,0.,12.0,0.,12.0,0.,12.0,0.,12.0
1979-07-19 00:42:14.980 ,7,0,0.,12.0,0.,12.0,0.,12.0,0.,12.0
1979-07-19 00:42:26.980 ,6,1,0.,12.0,0.,12.0,0.,12.0,0.,12.0
1979-07-19 00:42:38.980 ,6,1,0.,12.0,0.,12.0,0.,12.0,0.,12.0
1979-07-19 00:42:50.980 ,6,0,0.,12.0,0.,12.0,0.,12.0,0.,12.0
1979-07-19 00:43:02.980 ,6,0,0.,12.0,0.,12.0,0.,12.0,0.,12.0
1979-07-19 00:43:14.980 ,5,1,0.,12.0,0.,12.0,0.,12.0,0.,12.0
1979-07-19 00:43:26.980 ,5,1,0.,12.0,0.,12.0,0.,12.0,0.,12.0
1979-07-19 00:43:38.980 ,5,0,0.,12.0,0.,12.0,0.,12.0,0.,12.0
1979-07-19 00:43:50.980 ,5,0,0.,12.0,0.,12.0,0.,12.0,0.,12.0
1979-07-19 00:44:02.980 ,4,1,0.,12.0,0.,12.0,0.,12.0,0.,12.0
1979-07-19 00:44:14.980 ,4,1,0.,12.0,0.,12.0,0.,12.0,0.,12.0
1979-07-19 00:44:26.980 ,4,0,0.,12.0,0.,12.0,0.,12.0,0.,12.0
1979-07-19 00:44:38.980 ,4,0,1.,12.0,0.,12.0,0.,12.0,0.,12.0
1979-07-19 00:44:50.980 ,3,1,0.,12.0,0.,12.0,0.,12.0,0.,12.0
1979-07-19 00:45:02.980 ,3,1,0.,12.0,0.,12.0,0.,12.0,0.,12.0
1979-07-19 00:45:14.980 ,3,0,0.,12.0,0.,12.0,0.,12.0,0.,12.0
1979-07-19 00:45:26.980 ,3,0,0.,12.0,0.,12.0,0.,12.0,0.,12.0
1979-07-19 00:45:38.980 ,2,1,0.,12.0,0.,12.0,0.,12.0,0.,12.0
1979-07-19 00:45:50.980 ,2,1,0.,12.0,0.,12.0,0.,12.0,0.,12.0
1979-07-19 00:46:02.980 ,2,0,0.,12.0,0.,12.0,0.,12.0,0.,12.0
1979-07-19 00:46:14.980 ,2,0,0.,12.0,0.,12.0,0.,12.0,0.,12.0
1979-07-19 00:46:26.980 ,1,1,0.,12.0,0.,12.0,0.,12.0,0.,12.0
1979-07-19 00:46:38.980 ,1,1,0.,12.0,0.,12.0,0.,12.0,0.,12.0
1979-07-19 00:46:50.980 ,1,0,0.,12.0,0.,12.0,0.,12.0,0.,12.0
1979-07-19 00:47:02.980 ,1,0,0.,12.0,0.,12.0,0.,12.0,0.,12.0
1979-07-19 00:47:14.980 ,0,1,1.,12.0,0.,12.0,0.,12.0,0.,12.0
1979-07-19 00:47:26.980 ,0,1,0.,12.0,0.,12.0,0.,12.0,0.,12.0
1979-07-19 00:47:38.980 ,0,0,0.,12.0,0.,12.0,0.,12.0,0.,12.0
1979-07-19 00:47:50.980 ,0,0,0.,12.0,0.,12.0,0.,12.0,0.,12.0
1979-07-19 00:48:02.980 ,0,1,0.,12.0,0.,12.0,0.,12.0,0.,12.0
1979-07-19 00:48:14.980 ,0,1,0.,12.0,0.,12.0,0.,12.0,0.,12.0
1979-07-19 00:48:26.980 ,0,0,0.,12.0,0.,12.0,0.,12.0,0.,12.0
1979-07-19 00:48:38.980 ,0,0,0.,12.0,0.,12.0,0.,12.0,0.,12.0
1979-07-19 00:48:50.980 ,1,1,0.,12.0,0.,12.0,0.,12.0,0.,12.0
1979-07-19 00:49:02.980 ,1,1,0.,12.0,0.,12.0,0.,12.0,0.,12.0
1979-07-19 00:49:14.980 ,1,0,0.,12.0,0.,12.0,0.,12.0,0.,12.0
1979-07-19 00:49:26.980 ,1,0,0.,12.0,0.,12.0,0.,12.0,0.,12.0
1979-07-19 00:49:38.980 ,2,1,0.,12.0,0.,12.0,0.,12.0,0.,12.0
1979-07-19 00:49:50.980 ,2,1,0.,12.0,0.,12.0,0.,12.0,0.,12.0
1979-07-19 00:50:02.980 ,2,0,0.,12.0,0.,12.0,0.,12.0,0.,12.0
1979-07-19 00:50:14.980 ,2,0,0.,12.0,0.,12.0,0.,12.0,0.,12.0
1979-07-19 00:50:26.980 ,3,1,1.,12.0,0.,12.0,0.,12.0,0.,12.0
1979-07-19 00:50:38.980 ,3,1,0.,12.0,0.,12.0,0.,12.0,0.,12.0
1979-07-19 00:50:50.980 ,3,0,0.,12.0,0.,12.0,0.,12.0,0.,12.0
1979-07-19 00:51:02.980 ,3,0,1.,12.0,0.,12.0,0.,12.0,0.,12.0
1979-07-19 00:51:14.980 ,4,1,0.,12.0,0.,12.0,0.,12.0,0.,12.0
1979-07-19 00:51:26.980 ,4,1,0.,12.0,0.,12.0,0.,12.0,0.,12.0
1979-07-19 00:51:38.980 ,4,0,0.,12.0,0.,12.0,0.,12.0,0.,12.0
1979-07-19 00:51:50.980 ,4,0,0.,12.0,0.,12.0,0.,12.0,0.,12.0
1979-07-19 00:52:02.980 ,5,1,0.,12.0,0.,12.0,0.,12.0,0.,12.0
1979-07-19 00:52:14.980 ,5,1,0.,12.0,0.,12.0,0.,12.0,0.,12.0
1979-07-19 00:52:26.980 ,5,0,0.,12.0,0.,12.0,0.,12.0,0.,12.0
1979-07-19 00:52:38.980 ,5,0,1.,12.0,0.,12.0,0.,12.0,0.,12.0
1979-07-19 00:52:50.980 ,6,1,0.,12.0,0.,12.0,0.,12.0,0.,12.0
1979-07-19 00:53:02.980 ,6,1,0.,12.0,0.,12.0,0.,12.0,0.,12.0
1979-07-19 00:53:14.980 ,6,0,0.,12.0,0.,12.0,0.,12.0,0.,12.0
1979-07-19 00:53:26.980 ,6,0,0.,12.0,0.,12.0,0.,12.0,0.,12.0
1979-07-19 00:53:38.980 ,7,1,0.,12.0,0.,12.0,0.,12.0,0.,12.0
1979-07-19 00:53:50.980 ,7,1,0.,12.0,0.,12.0,0.,12.0,0.,12.0
1979-07-19 00:54:02.980 ,7,0,0.,12.0,0.,12.0,0.,12.0,0.,12.0
1979-07-19 00:54:14.980 ,7,0,0.,12.0,0.,12.0,0.,12.0,0.,12.0
1979-07-19 00:54:26.980 ,7,1,0.,12.0,0.,12.0,0.,12.0,0.,12.0
1979-07-19 00:54:38.980 ,7,1,0.,12.0,0.,12.0,0.,12.0,0.,12.0
1979-07-19 00:54:50.980 ,7,0,0.,12.0,0.,12.0,0.,12.0,0.,12.0
1979-07-19 00:55:02.980 ,7,0,0.,12.0,0.,12.0,0.,12.0,0.,12.0
1979-07-19 00:55:14.980 ,6,1,0.,12.0,0.,12.0,0.,12.0,0.,12.0
1979-07-19 00:55:26.980 ,6,1,0.,12.0,0.,12.0,0.,12.0,0.,12.0
1979-07-19 00:55:38.980 ,6,0,0.,12.0,0.,12.0,0.,12.0,0.,12.0
1979-07-19 00:55:50.980 ,6,0,0.,12.0,0.,12.0,0.,12.0,0.,12.0
1979-07-19 00:56:02.980 ,5,1,0.,12.0,0.,12.0,0.,12.0,0.,12.0
1979-07-19 00:56:14.980 ,5,1,0.,12.0,0.,12.0,0.,12.0,0.,12.0
1979-07-19 00:56:26.980 ,5,0,0.,12.0,0.,12.0,0.,12.0,0.,12.0
1979-07-19 00:56:38.980 ,5,0,0.,12.0,0.,12.0,0.,12.0,0.,12.0
1979-07-19 00:56:50.980 ,4,1,0.,12.0,0.,12.0,0.,12.0,0.,12.0
1979-07-19 00:57:02.980 ,4,1,0.,12.0,0.,12.0,0.,12.0,0.,12.0
1979-07-19 00:57:14.980 ,4,0,0.,12.0,0.,12.0,0.,12.0,0.,12.0
1979-07-19 00:57:26.980 ,4,0,0.,12.0,0.,12.0,0.,12.0,0.,12.0
1979-07-19 00:57:38.980 ,3,1,1.,12.0,0.,12.0,0.,12.0,0.,12.0
1979-07-19 00:57:50.980 ,3,1,0.,12.0,0.,12.0,0.,12.0,0.,12.0
1979-07-19 00:58:02.980 ,3,0,0.,12.0,0.,12.0,0.,12.0,0.,12.0
1979-07-19 00:58:14.980 ,3,0,0.,12.0,0.,12.0,0.,12.0,0.,12.0
1979-07-19 00:58:26.980 ,2,1,0.,12.0,0.,12.0,0.,12.0,0.,12.0
1979-07-19 00:58:38.980 ,2,1,0.,12.0,0.,12.0,0.,12.0,0.,12.0
1979-07-19 00:58:50.980 ,2,0,0.,12.0,0.,12.0,0.,12.0,0.,12.0
1979-07-19 00:59:02.980 ,2,0,0.,12.0,0.,12.0,0.,12.0,0.,12.0
1979-07-19 00:59:14.980 ,1,1,1.,12.0,0.,12.0,0.,12.0,0.,12.0
1979-07-19 00:59:26.980 ,1,1,0.,12.0,0.,12.0,0.,12.0,0.,12.0
1979-07-19 00:59:38.980 ,1,0,0.,12.0,0.,12.0,0.,12.0,0.,12.0
1979-07-19 00:59:50.980 ,1,0,0.,12.0,0.,12.0,0.,12.0,0.,12.0
1979-07-19 01:00:02.980 ,0,1,0.,12.0,0.,12.0,0.,12.0,0.,12.0
1979-07-19 01:00:14.980 ,0,1,0.,12.0,0.,12.0,0.,12.0,0.,12.0
1979-07-19 01:00:26.980 ,0,0,0.,12.0,0.,12.0,0.,12.0,0.,12.0
1979-07-19 01:00:38.980 ,0,0,0.,12.0,0.,12.0,0.,12.0,0.,12.0
1979-07-19 01:00:50.980 ,0,1,0.,12.0,0.,12.0,0.,12.0,0.,12.0
1979-07-19 01:01:02.980 ,0,1,0.,12.0,0.,12.0,0.,12.0,0.,12.0
1979-07-19 01:01:14.980 ,0,0,0.,12.0,0.,12.0,0.,12.0,0.,12.0
1979-07-19 01:01:26.980 ,0,0,0.,12.0,0.,12.0,0.,12.0,0.,12.0
1979-07-19 01:01:38.980 ,1,1,0.,12.0,0.,12.0,0.,12.0,0.,12.0
1979-07-19 01:01:50.980 ,1,1,0.,12.0,0.,12.0,0.,12.0,0.,12.0
1979-07-19 01:02:02.980 ,1,0,0.,12.0,0.,12.0,0.,12.0,0.,12.0
1979-07-19 01:02:14.980 ,1,0,0.,12.0,0.,12.0,0.,12.0,0.,12.0
1979-07-19 01:02:26.980 ,2,1,0.,12.0,0.,12.0,0.,12.0,0.,12.0
1979-07-19 01:02:38.980 ,2,1,0.,12.0,0.,12.0,0.,12.0,0.,12.0
1979-07-19 01:02:50.980 ,2,0,0.,12.0,0.,12.0,0.,12.0,0.,12.0
1979-07-19 01:03:02.980 ,2,0,0.,12.0,0.,12.0,0.,12.0,0.,12.0
1979-07-19 01:03:14.980 ,3,1,0.,12.0,0.,12.0,0.,12.0,0.,12.0
1979-07-19 01:03:26.980 ,3,1,0.,12.0,0.,12.0,0.,12.0,0.,12.0
1979-07-19 01:03:38.980 ,3,0,0.,12.0,0.,12.0,0.,12.0,0.,12.0
1979-07-19 01:03:50.980 ,3,0,0.,12.0,0.,12.0,0.,12.0,0.,12.0
1979-07-19 01:04:02.980 ,4,1,0.,12.0,0.,12.0,0.,12.0,0.,12.0
1979-07-19 01:04:14.980 ,4,1,1.,12.0,0.,12.0,0.,12.0,0.,12.0
1979-07-19 01:04:26.980 ,4,0,0.,12.0,0.,12.0,0.,12.0,0.,12.0
1979-07-19 01:04:38.980 ,4,0,0.,12.0,0.,12.0,0.,12.0,0.,12.0
1979-07-19 01:04:50.980 ,5,1,0.,12.0,0.,12.0,0.,12.0,0.,12.0
1979-07-19 01:05:02.980 ,5,1,0.,12.0,0.,12.0,0.,12.0,0.,12.0
1979-07-19 01:05:14.980 ,5,0,0.,12.0,0.,12.0,0.,12.0,0.,12.0
1979-07-19 01:05:26.980 ,5,0,0.,12.0,0.,12.0,0.,12.0,0.,12.0
1979-07-19 01:05:38.980 ,6,1,0.,12.0,0.,12.0,0.,12.0,0.,12.0
1979-07-19 01:05:50.980 ,6,1,0.,12.0,0.,12.0,0.,12.0,0.,12.0
1979-07-19 01:06:02.980 ,6,0,0.,12.0,0.,12.0,0.,12.0,0.,12.0
1979-07-19 01:06:14.980 ,6,0,0.,12.0,0.,12.0,0.,12.0,0.,12.0
1979-07-19 01:06:26.980 ,7,0,0.,12.0,0.,12.0,0.,12.0,0.,12.0
1979-07-19 01:06:38.980 ,7,0,0.,12.0,0.,12.0,0.,12.0,0.,12.0
1979-07-19 01:06:50.980 ,7,0,0.,12.0,0.,12.0,0.,12.0,0.,12.0
1979-07-19 01:07:02.980 ,7,0,0.,12.0,0.,12.0,0.,12.0,0.,12.0
1979-07-19 01:07:14.980 ,4,1,0.,12.0,0.,12.0,0.,12.0,0.,12.0
1979-07-19 01:07:26.980 ,4,1,0.,12.0,0.,12.0,0.,12.0,0.,12.0
1979-07-19 01:07:38.980 ,0,1,0.,12.0,0.,12.0,0.,12.0,0.,12.0
1979-07-19 01:07:50.980 ,0,1,0.,12.0,0.,12.0,0.,12.0,0.,12.0
1979-07-19 01:08:02.980 ,3,1,1.,12.0,0.,12.0,0.,12.0,0.,12.0
1979-07-19 01:08:14.980 ,3,1,0.,12.0,0.,12.0,0.,12.0,0.,12.0
1979-07-19 01:08:26.980 ,7,1,0.,12.0,0.,12.0,0.,12.0,0.,12.0
1979-07-19 01:08:38.980 ,7,1,0.,12.0,0.,12.0,0.,12.0,0.,12.0
1979-07-19 01:08:50.980 ,4,1,0.,12.0,0.,12.0,0.,12.0,0.,12.0
1979-07-19 01:09:02.980 ,4,1,1.,12.0,0.,12.0,0.,12.0,0.,12.0
1979-07-19 01:09:14.980 ,0,1,0.,12.0,0.,12.0,0.,12.0,0.,12.0
1979-07-19 01:09:26.980 ,0,1,0.,12.0,0.,12.0,0.,12.0,0.,12.0
1979-07-19 01:09:38.980 ,3,1,0.,12.0,0.,12.0,0.,12.0,0.,12.0
1979-07-19 01:09:50.980 ,3,1,0.,12.0,0.,12.0,0.,12.0,0.,12.0
1979-07-19 01:10:02.980 ,7,1,0.,12.0,0.,12.0,0.,12.0,0.,12.0
1979-07-19 01:10:14.980 ,7,1,0.,12.0,0.,12.0,0.,12.0,0.,12.0
1979-07-19 01:10:26.980 ,4,1,0.,12.0,0.,12.0,0.,12.0,0.,12.0
1979-07-19 01:10:38.980 ,4,1,0.,12.0,0.,12.0,0.,12.0,0.,12.0
1979-07-19 01:10:50.980 ,0,1,0.,12.0,0.,12.0,0.,12.0,0.,12.0
1979-07-19 01:11:02.980 ,0,1,0.,12.0,0.,12.0,0.,12.0,1.,12.0
1979-07-19 01:11:14.980 ,3,1,0.,12.0,0.,12.0,0.,12.0,0.,12.0
1979-07-19 01:11:26.980 ,3,1,0.,12.0,0.,12.0,0.,12.0,0.,12.0
1979-07-19 01:11:38.980 ,7,1,0.,12.0,0.,12.0,0.,12.0,0.,12.0
1979-07-19 01:11:50.980 ,7,1,0.,12.0,0.,12.0,0.,12.0,0.,12.0
1979-07-19 01:12:02.980 ,4,1,0.,12.0,0.,12.0,0.,12.0,0.,12.0
1979-07-19 01:12:14.980 ,4,1,0.,12.0,0.,12.0,0.,12.0,0.,12.0
1979-07-19 01:12:26.980 ,0,1,0.,12.0,0.,12.0,0.,12.0,0.,12.0
1979-07-19 01:12:38.980 ,0,1,0.,12.0,0.,12.0,0.,12.0,0.,12.0
1979-07-19 01:12:50.980 ,3,1,0.,12.0,0.,12.0,0.,12.0,0.,12.0
1979-07-19 01:13:02.980 ,3,1,0.,12.0,0.,12.0,0.,12.0,0.,12.0
1979-07-19 01:13:14.980 ,7,1,0.,12.0,0.,12.0,0.,12.0,0.,12.0
1979-07-19 01:13:26.980 ,7,1,0.,12.0,0.,12.0,0.,12.0,0.,12.0
1979-07-19 01:13:38.980 ,4,1,0.,12.0,0.,12.0,0.,12.0,0.,12.0
1979-07-19 01:13:50.980 ,4,1,0.,12.0,0.,12.0,0.,12.0,0.,12.0
1979-07-19 01:14:02.980 ,0,1,0.,12.0,0.,12.0,0.,12.0,0.,12.0
1979-07-19 01:14:14.980 ,0,1,0.,12.0,0.,12.0,0.,12.0,0.,12.0
1979-07-19 01:14:26.980 ,3,1,0.,12.0,0.,12.0,0.,12.0,0.,12.0
1979-07-19 01:14:38.980 ,3,1,1.,12.0,0.,12.0,0.,12.0,0.,12.0
1979-07-19 01:14:50.980 ,7,1,0.,12.0,0.,12.0,0.,12.0,0.,12.0
1979-07-19 01:15:02.980 ,7,1,0.,12.0,0.,12.0,0.,12.0,0.,12.0
1979-07-19 01:15:14.980 ,4,1,0.,12.0,0.,12.0,0.,12.0,0.,12.0
1979-07-19 01:15:26.980 ,4,1,0.,12.0,0.,12.0,0.,12.0,0.,12.0
1979-07-19 01:15:38.980 ,0,1,0.,12.0,0.,12.0,0.,12.0,0.,12.0
1979-07-19 01:15:50.980 ,0,1,0.,12.0,0.,12.0,0.,12.0,0.,12.0
1979-07-19 01:16:02.980 ,3,1,0.,12.0,0.,12.0,0.,12.0,0.,12.0
1979-07-19 01:16:14.980 ,3,1,0.,12.0,0.,12.0,0.,12.0,0.,12.0
1979-07-19 01:16:26.980 ,7,1,0.,12.0,0.,12.0,0.,12.0,0.,12.0
1979-07-19 01:16:38.980 ,7,1,0.,12.0,0.,12.0,0.,12.0,0.,12.0
1979-07-19 01:16:50.980 ,4,1,0.,12.0,0.,12.0,0.,12.0,0.,12.0
1979-07-19 01:17:02.980 ,4,1,0.,12.0,0.,12.0,0.,12.0,0.,12.0
1979-07-19 01:17:14.980 ,0,1,0.,12.0,0.,12.0,0.,12.0,0.,12.0
1979-07-19 01:17:26.980 ,0,1,0.,12.0,0.,12.0,0.,12.0,0.,12.0
1979-07-19 01:17:38.980 ,0,0,0.,12.0,0.,12.0,0.,12.0,0.,12.0
1979-07-19 01:17:50.980 ,0,0,0.,12.0,0.,12.0,0.,12.0,0.,12.0